Zurück zum Katalog

SL-14 DEB

AktivPO
NORAD 45271·DEBRIS·🇷🇺 Russia

Gestartet Aug 15, 1991 von Plesetsk Cosmodrome

Loading…

Nächste Überflüge (nächste 24 Stunden)

TLE

AktuellSource: Space-Track

Epoche: Sep 13, 2026, 23:38 UTC

1 45271U 91056H   26256.98508216 -.00000016  00000-0 -84610-4 0  9992
2 45271  82.3845  95.4964 0050696 127.0317 233.5453 13.06728279313439

Verfolge SL-14 DEB in Echtzeit mit AllMySat

Download on the App Store